Temp
-12 -13 -13 -13 -13 -13 -13 -13 -13 -13 -13 -12 -12 -12 -12 -12 -12 -12 -12 -12 -12 -12 -12 -12 -12 -12 -12 -12 -12 -12 -12 -12 -12 -12 -12 -12 -12 -12 -12 -12 -12 -12
-13 -13 -13 -13 -13 -13 -13 -13 -13 -13 -13 -13 -13 -13 -13 -12 -12 -12 -12 -12 -12 -12 -12 -12 -12 -12 -12 -12 -12 -12 -12 -12 -12 -12 -12 -12 -12 -12 -12 -12 -12 -12
-13 -13 -13 -13 -13 -13 -13 -13 -13 -13 -13 -13 -13 -13 -13 -13 -12 -12 -12 -12 -12 -12 -12 -12 -12 -12 -12 -12 -12 -12 -12 -12 -12 -12 -12 -12 -12 -12 -12 -12 -12 -12
-13 -13 -13 -13 -13 -13 -13 -13 -13 -13 -13 -13 -13 -13 -13 -13 -13 -13 -13 -13 -13 -12 -12 -12 -12 -12 -12 -12 -12 -12 -12 -12 -12 -12 -12 -12 -12 -12 -12 -12 -12 -12
-13 -13 -13 -13 -13 -13 -13 -13 -13 -13 -13 -13 -13 -13 -13 -13 -13 -13 -13 -13 -13 -13 -13 -13 -12 -12 -12 -12 -12 -12 -12 -12 -12 -12 -12 -12 -12 -12 -12 -12 -13 -13
-14 -14 -13 -13 -13 -13 -13 -13 -13 -13 -13 -13 -13 -13 -13 -13 -13 -13 -13 -13 -13 -13 -13 -13 -13 -13 -13 -12 -12 -12 -12 -12 -12 -12 -12 -12 -12 -12 -12 -12 -13 -13
-14 -14 -14 -14 -13 -13 -13 -13 -13 -13 -13 -13 -13 -13 -13 -13 -13 -13 -13 -13 -13 -13 -13 -13 -13 -13 -13 -13 -13 -13 -13 -13 -13 -12 -12 -12 -12 -12 -12 -13 -13 -13
-14 -14 -14 -14 -13 -13 -13 -13 -13 -13 -13 -13 -13 -14 -14 -14 -14 -14 -14 -13 -13 -13 -13 -13 -13 -13 -13 -13 -13 -13 -13 -13 -13 -13 -12 -12 -12 -13 -13 -13 -13 -13
-14 -14 -14 -14 -14 -13 -13 -13 -13 -13 -13 -13 -14 -14 -14 -14 -14 -14 -14 -14 -13 -13 -13 -13 -13 -13 -13 -13 -13 -13 -13 -13 -13 -13 -13 -13 -13 -13 -13 -13 -13 -13
-14 -14 -14 -14 -14 -13 -13 -13 -13 -13 -13 -14 -14 -14 -14 -14 -14 -14 -14 -14 -14 -13 -13 -13 -13 -13 -13 -13 -13 -13 -13 -13 -13 -13 -13 -13 -13 -13 -13 -13 -13 -13
-14 -14 -14 -14 -14 -14 -13 -13 -13 -13 -14 -14 -14 -14 -14 -15 -14 -14 -14 -14 -14 -14 -13 -13 -13 -13 -13 -13 -13 -13 -13 -13 -13 -13 -13 -13 -13 -13 -13 -13 -13 -13
-14 -14 -14 -14 -14 -14 -14 -14 -14 -14 -14 -14 -14 -14 -15 -15 -15 -14 -14 -14 -14 -14 -14 -14 -13 -13 -13 -13 -13 -13 -13 -13 -13 -13 -13 -13 -13 -13 -13 -13 -13 -13
-14 -14 -14 -14 -14 -14 -14 -14 -14 -14 -14 -14 -15 -15 -15 -15 -15 -15 -14 -14 -14 -14 -14 -14 -14 -14 -13 -13 -13 -13 -13 -13 -13 -13 -13 -13 -13 -13 -13 -13 -13 -13
-14 -14 -14 -14 -14 -14 -14 -14 -14 -14 -15 -15 -15 -15 -15 -15 -15 -15 -15 -14 -14 -14 -14 -14 -14 -14 -14 -14 -13 -13 -13 -13 -13 -13 -13 -13 -13 -13 -13 -13 -13 -13
-14 -14 -15 -14 -14 -14 -14 -14 -14 -15 -15 -15 -15 -15 -15 -15 -15 -15 -15 -14 -14 -14 -14 -14 -14 -14 -14 -14 -14 -14 -14 -14 -13 -13 -13 -13 -13 -13 -13 -13 -13 -14
-15 -15 -15 -15 -15 -15 -15 -15 -15 -15 -15 -15 -15 -15 -15 -15 -15 -15 -15 -15 -14 -14 -14 -14 -14 -14 -14 -14 -14 -14 -14 -14 -14 -14 -14 -14 -14 -14 -14 -14 -14 -14
-15 -15 -15 -15 -15 -15 -15 -15 -15 -15 -15 -15 -15 -15 -15 -15 -15 -15 -15 -15 -15 -14 -14 -14 -14 -14 -14 -14 -14 -14 -14 -14 -14 -14 -14 -14 -14 -14 -14 -14 -14 -14
-15 -15 -15 -15 -15 -15 -15 -15 -15 -15 -15 -15 -15 -15 -15 -15 -15 -15 -15 -15 -15 -15 -14 -14 -14 -14 -14 -14 -14 -14 -14 -14 -14 -14 -14 -14 -14 -14 -14 -14 -14 -14
-15 -15 -15 -15 -15 -15 -15 -15 -15 -15 -15 -15 -15 -15 -15 -15 -15 -15 -15 -15 -15 -15 -14 -14 -14 -14 -14 -14 -14 -14 -14 -14 -14 -14 -14 -14 -15 -15 -15 -15 -15 -15
-14 -15 -15 -15 -15 -15 -15 -15 -15 -15 -15 -15 -15 -16 -16 -16 -15 -15 -15 -15 -15 -15 -15 -15 -15 -14 -14 -14 -14 -14 -14 -15 -15 -15 -15 -15 -15 -15 -15 -15 -15 -15
-14 -15 -15 -15 -15 -15 -15 -15 -15 -15 -16 -16 -16 -16 -16 -16 -16 -16 -15 -15 -15 -15 -15 -15 -15 -15 -15 -15 -15 -15 -15 -15 -15 -15 -15 -15 -15 -15 -15 -15 -15 -15
-15 -15 -15 -15 -15 -15 -15 -15 -16 -16 -16 -16 -16 -16 -16 -16 -16 -16 -15 -15 -15 -15 -15 -15 -15 -15 -15 -15 -15 -15 -15 -15 -15 -15 -15 -15 -15 -15 -15 -15 -15 -15
-15 -15 -15 -15 -15 -15 -16 -16 -16 -16 -16 -16 -16 -16 -16 -16 -16 -16 -16 -15 -15 -15 -15 -15 -15 -15 -15 -15 -15 -15 -15 -15 -15 -15 -16 -16 -16 -16 -16 -16 -16 -16
-15 -15 -16 -16 -16 -16 -16 -16 -16 -16 -16 -16 -16 -16 -16 -16 -16 -16 -16 -16 -15 -15 -15 -15 -15 -15 -15 -15 -15 -15 -15 -16 -16 -16 -16 -16 -16 -16 -16 -16 -16 -16
-16 -16 -16 -16 -16 -16 -16 -16 -16 -16 -17 -17 -17 -16 -16 -16 -16 -16 -16 -16 -16 -15 -15 -15 -15 -15 -15 -16 -16 -16 -16 -16 -16 -16 -16 -16 -16 -16 -16 -16 -16 -16
-16 -16 -16 -16 -16 -16 -16 -17 -17 -17 -17 -17 -17 -17 -16 -16 -16 -16 -16 -16 -16 -16 -15 -15 -15 -16 -16 -16 -16 -16 -16 -16 -16 -16 -16 -16 -16 -16 -16 -16 -16 -16
Height
5796 5797 5798 5799 5800 5802 5803 5804 5805 5805 5805 5805 5804 5804 5804 5803 5803 5802 5802 5801 5800 5800 5799 5799 5797 5796 5795 5794 5792 5791 5790 5789 5787 5786 5784 5783 5782 5780 5778 5776 5774 5772
5794 5795 5797 5798 5799 5800 5801 5802 5803 5803 5802 5802 5802 5802 5801 5801 5800 5800 5799 5798 5798 5797 5797 5796 5795 5794 5793 5791 5790 5788 5787 5786 5785 5783 5782 5780 5779 5777 5776 5773 5771 5769
5792 5794 5795 5796 5797 5798 5800 5800 5800 5800 5800 5800 5799 5799 5799 5799 5798 5797 5796 5796 5795 5795 5794 5793 5792 5791 5790 5788 5787 5786 5785 5783 5782 5781 5779 5778 5776 5775 5773 5771 5769 5767
5790 5792 5793 5795 5796 5797 5798 5798 5798 5797 5797 5797 5797 5797 5797 5796 5795 5795 5794 5793 5793 5792 5791 5790 5789 5788 5787 5786 5784 5783 5782 5781 5779 5778 5776 5775 5774 5772 5771 5769 5766 5764
5789 5790 5792 5793 5794 5794 5795 5795 5795 5795 5795 5795 5795 5795 5794 5794 5793 5792 5792 5791 5790 5789 5788 5787 5786 5785 5784 5783 5782 5780 5779 5778 5776 5775 5774 5772 5771 5770 5768 5766 5764 5761
5788 5789 5791 5791 5792 5792 5792 5792 5792 5793 5793 5793 5793 5793 5792 5791 5791 5790 5789 5789 5788 5787 5786 5785 5784 5783 5781 5780 5779 5778 5776 5775 5773 5772 5771 5770 5768 5767 5765 5763 5761 5758
5786 5787 5788 5789 5790 5790 5790 5790 5790 5790 5791 5791 5791 5791 5790 5789 5788 5788 5787 5786 5785 5784 5783 5782 5781 5780 5778 5777 5776 5775 5773 5772 5770 5769 5768 5767 5765 5764 5762 5760 5758 5756
5784 5785 5786 5787 5788 5788 5787 5788 5788 5788 5789 5789 5789 5788 5788 5787 5786 5786 5785 5784 5783 5782 5781 5779 5778 5777 5776 5774 5773 5771 5770 5769 5768 5766 5765 5764 5763 5761 5759 5757 5755 5753
5782 5783 5784 5785 5786 5785 5785 5786 5786 5786 5787 5787 5786 5786 5785 5785 5784 5784 5783 5782 5781 5779 5778 5777 5775 5774 5773 5771 5770 5768 5767 5766 5765 5764 5762 5761 5760 5758 5756 5755 5752 5750
5779 5781 5782 5783 5783 5783 5783 5784 5784 5784 5785 5784 5784 5784 5783 5782 5782 5781 5780 5779 5778 5776 5775 5774 5772 5771 5770 5768 5767 5766 5764 5763 5762 5761 5759 5758 5757 5755 5754 5752 5750 5748
5778 5779 5780 5781 5781 5781 5782 5782 5782 5783 5782 5782 5782 5781 5781 5780 5780 5779 5777 5776 5775 5773 5772 5771 5770 5768 5767 5766 5764 5763 5762 5760 5759 5758 5757 5755 5754 5752 5751 5749 5747 5745
5776 5777 5778 5779 5779 5780 5780 5780 5780 5780 5780 5780 5779 5779 5778 5778 5777 5776 5775 5773 5772 5771 5769 5768 5767 5766 5764 5763 5761 5760 5759 5758 5756 5755 5754 5752 5751 5749 5748 5746 5744 5742
5774 5775 5776 5776 5777 5777 5778 5778 5778 5777 5777 5777 5776 5776 5776 5775 5774 5773 5772 5770 5769 5768 5766 5765 5764 5763 5761 5760 5758 5757 5756 5754 5753 5752 5750 5749 5748 5746 5745 5743 5741 5740
5771 5772 5773 5774 5774 5775 5775 5775 5775 5775 5774 5774 5773 5773 5773 5772 5771 5770 5769 5767 5766 5765 5764 5762 5761 5760 5758 5756 5755 5754 5752 5751 5750 5749 5747 5746 5744 5743 5741 5740 5738 5737
5768 5769 5771 5771 5772 5772 5772 5772 5772 5772 5771 5771 5771 5770 5770 5769 5768 5767 5766 5764 5763 5762 5760 5759 5758 5756 5755 5754 5752 5751 5749 5748 5747 5745 5744 5742 5741 5739 5738 5737 5735 5734
5766 5767 5768 5768 5769 5769 5769 5769 5769 5769 5769 5768 5768 5767 5767 5766 5765 5764 5762 5761 5760 5759 5757 5756 5755 5753 5752 5750 5749 5748 5746 5745 5743 5742 5741 5739 5738 5736 5735 5734 5732 5731
5763 5764 5765 5765 5766 5766 5766 5766 5766 5766 5766 5765 5765 5764 5763 5762 5761 5760 5759 5758 5757 5755 5754 5753 5751 5750 5748 5747 5746 5744 5743 5741 5740 5739 5737 5736 5735 5733 5732 5731 5730 5728
5761 5761 5762 5762 5763 5763 5763 5763 5763 5763 5763 5762 5762 5761 5760 5759 5758 5757 5756 5754 5753 5752 5751 5750 5748 5746 5745 5743 5742 5741 5739 5738 5737 5735 5734 5733 5731 5730 5729 5728 5727 5726
5758 5758 5758 5759 5759 5760 5760 5760 5760 5760 5759 5759 5758 5757 5757 5756 5755 5754 5753 5751 5750 5749 5748 5747 5745 5743 5742 5740 5739 5737 5736 5735 5734 5732 5731 5730 5729 5727 5726 5725 5724 5723
5755 5755 5755 5756 5756 5756 5756 5756 5756 5756 5756 5756 5755 5754 5754 5753 5752 5751 5749 5748 5747 5746 5745 5743 5742 5740 5739 5737 5735 5734 5733 5731 5730 5729 5728 5727 5726 5725 5723 5722 5721 5720
5751 5752 5752 5753 5753 5753 5753 5753 5753 5753 5753 5752 5752 5751 5750 5749 5748 5747 5746 5745 5744 5743 5741 5740 5739 5737 5736 5734 5733 5731 5730 5728 5727 5726 5725 5724 5723 5722 5721 5720 5718 5717
5748 5748 5749 5749 5749 5749 5749 5749 5750 5749 5749 5749 5749 5748 5747 5746 5745 5744 5743 5742 5741 5739 5738 5737 5736 5734 5733 5731 5730 5729 5727 5726 5724 5723 5722 5721 5720 5719 5718 5717 5716 5715
5744 5745 5745 5745 5746 5746 5746 5746 5746 5746 5746 5746 5745 5745 5744 5743 5742 5741 5739 5738 5737 5736 5735 5734 5732 5731 5730 5729 5727 5726 5725 5723 5722 5721 5720 5718 5717 5716 5715 5714 5713 5712
5741 5741 5742 5742 5742 5743 5743 5743 5743 5743 5743 5742 5742 5741 5740 5739 5738 5737 5736 5735 5734 5733 5731 5730 5729 5728 5727 5726 5725 5723 5722 5721 5720 5719 5717 5716 5715 5714 5713 5711 5710 5709
5738 5738 5738 5739 5739 5739 5740 5740 5740 5740 5739 5739 5738 5737 5736 5736 5735 5734 5733 5732 5730 5729 5728 5727 5726 5725 5724 5723 5722 5721 5720 5719 5717 5716 5715 5714 5713 5711 5710 5709 5708 5707
5735 5735 5735 5735 5736 5736 5736 5736 5736 5736 5736 5735 5734 5734 5733 5732 5731 5730 5729 5728 5727 5726 5724 5723 5722 5721 5721 5720 5719 5718 5717 5716 5715 5714 5713 5711 5710 5709 5708 5707 5705 5704
Wind_Speed
19 19 18 18 18 17 17 16 16 16 17 17 17 17 18 19 20 21 21 22 22 21 21 21 21 21 21 21 21 21 21 21 22 22 23 24 25 26 28 29 31 32
21 21 20 19 19 19 18 17 16 16 16 16 15 16 17 18 19 20 21 21 21 21 21 21 21 22 22 22 22 21 22 22 22 23 23 24 25 26 28 29 30 32
23 23 22 21 21 20 19 17 16 16 15 14 14 15 16 18 19 20 20 21 21 21 21 22 22 23 23 23 22 22 22 22 23 23 24 25 26 27 28 29 30 32
25 24 23 22 21 20 19 17 16 15 13 13 13 14 16 18 19 20 21 22 22 23 23 23 24 24 24 23 23 23 22 22 23 24 25 26 26 27 27 28 30 31
25 24 23 22 21 20 18 16 15 14 13 13 14 15 17 18 19 20 22 23 24 24 24 24 24 25 24 24 23 23 23 23 24 24 25 26 26 27 27 28 29 31
23 22 22 22 22 20 17 15 14 14 14 14 14 16 18 19 20 21 22 24 25 25 25 25 25 25 25 24 24 24 24 24 24 25 25 26 26 26 27 27 28 30
21 21 21 22 22 19 16 15 14 14 15 15 16 17 18 20 21 22 23 24 26 26 25 25 25 25 25 25 25 24 24 24 25 25 26 26 26 26 27 27 28 29
20 19 20 21 21 18 16 15 14 15 16 17 17 18 19 20 21 22 24 25 26 25 25 24 25 25 25 25 25 24 24 24 25 26 26 26 26 27 27 27 27 29
19 19 19 20 20 18 16 14 15 16 17 18 19 19 20 21 21 22 24 24 24 24 24 24 25 25 25 25 25 24 25 25 25 26 26 26 27 27 27 27 28 29
18 18 18 19 19 17 15 15 16 17 18 19 20 20 21 21 22 23 24 24 24 24 24 25 25 25 25 24 24 24 25 25 26 26 27 27 27 27 27 27 28 29
18 17 17 18 18 16 15 16 17 18 19 20 21 22 22 22 23 23 24 24 24 24 25 25 25 24 24 24 24 24 25 26 26 27 27 27 27 27 27 27 27 28
17 16 17 17 16 15 15 16 17 19 20 21 22 23 23 23 24 24 24 24 25 25 25 25 24 24 24 24 24 24 25 26 26 27 27 27 27 27 27 27 28 28
17 17 16 16 16 16 17 17 18 19 20 21 23 23 24 24 25 25 25 25 25 25 26 25 25 25 25 25 25 25 26 26 27 27 28 28 28 27 27 27 28 28
18 17 16 16 17 18 18 18 19 20 21 22 23 24 25 25 25 25 25 25 26 26 26 26 26 26 26 26 26 27 27 27 28 28 28 28 28 28 28 27 28 28
18 17 16 17 19 19 19 19 19 20 21 22 24 24 24 25 25 26 26 26 26 27 27 27 27 27 27 27 27 27 28 28 28 29 29 28 28 28 27 27 28 28
19 17 18 19 20 21 20 20 21 21 22 23 23 24 24 25 26 26 26 26 26 27 27 27 27 28 28 28 28 28 28 28 28 29 29 28 28 27 27 27 28 29
20 18 19 20 21 21 22 22 22 22 22 23 23 23 25 26 26 26 26 26 27 27 28 28 28 28 29 29 28 28 28 28 28 28 28 27 27 26 26 27 28 29
22 20 20 21 22 23 23 23 23 22 23 23 23 24 25 26 26 26 26 26 27 27 28 28 29 29 29 29 29 29 28 28 28 27 27 26 26 26 26 27 27 28
20 19 20 21 22 23 23 23 23 23 23 24 24 25 26 26 26 26 26 27 27 28 28 28 29 29 29 29 29 29 29 28 27 27 26 26 26 26 26 27 27 28
18 18 18 20 21 22 22 22 23 23 24 24 25 25 26 26 26 26 26 26 27 28 28 28 28 28 29 29 29 28 28 28 27 27 26 26 26 26 27 27 28 28
19 19 19 20 21 22 22 22 23 23 24 24 25 25 25 25 26 25 26 26 27 27 27 27 27 27 27 28 28 27 27 27 27 27 27 27 27 27 27 28 28 28
19 20 21 21 21 22 22 22 23 24 24 24 25 25 25 25 25 25 26 26 26 26 26 26 26 26 26 26 26 27 27 27 27 27 27 27 27 27 28 28 28 29
21 21 22 22 22 22 22 23 24 24 24 24 25 25 25 25 25 25 26 26 26 26 26 25 25 25 25 25 25 26 26 26 26 27 27 27 27 27 27 27 27 27
23 23 23 23 23 23 23 24 24 24 24 24 24 25 25 25 25 25 25 25 25 25 25 25 25 25 25 25 25 25 25 25 26 26 26 26 26 26 25 25 25 25
25 24 23 23 23 23 24 24 25 24 24 24 25 25 25 24 25 25 25 25 25 25 24 24 24 24 24 24 24 24 24 25 25 25 25 25 24 24 24 24 24 25
25 25 25 25 25 24 25 25 25 24 24 24 25 25 24 24 25 24 24 24 24 24 24 24 24 24 24 24 24 24 24 24 24 24 24 24 24 24 24 25 26 27
Wind_Direction
227 227 226 225 229 232 236 245 253 262 268 273 278 283 286 288 289 290 291 291 293 293 293 293 292 293 294 294 295 297 301 302 302 303 304 306 307 309 311 313 315 317
230 229 227 228 230 233 239 247 254 261 267 274 280 285 288 290 290 292 293 294 296 296 295 295 295 296 296 295 295 297 300 302 302 303 304 305 307 309 311 312 314 316
231 230 228 229 232 237 243 250 255 260 266 274 282 287 289 290 292 294 296 297 298 299 299 299 298 298 296 295 295 296 298 301 302 303 304 304 306 308 310 311 313 315
231 229 228 231 235 241 246 251 256 261 267 275 282 288 290 292 295 296 298 299 300 301 301 301 299 298 296 295 294 295 297 300 302 303 303 303 305 306 307 310 312 313
230 231 233 235 239 243 246 251 257 262 269 275 282 289 292 295 298 298 300 300 301 301 300 299 298 296 295 294 293 294 297 299 301 302 302 301 302 304 306 308 310 312
230 234 237 239 242 244 246 251 258 264 270 276 283 291 295 298 300 300 301 301 301 300 299 298 297 295 294 293 292 293 295 298 300 300 300 300 300 302 304 306 308 309
226 233 239 243 244 244 246 252 259 267 273 278 284 291 297 301 302 302 302 301 300 299 298 298 297 295 294 292 291 292 294 297 299 299 299 299 299 301 302 304 306 307
226 232 239 244 245 245 248 256 264 271 276 281 285 291 298 302 303 303 302 300 299 299 299 298 297 295 293 292 291 292 294 296 298 298 298 298 299 300 301 303 305 306
230 233 240 245 246 248 253 261 268 274 279 283 287 291 297 301 303 303 302 300 299 300 300 300 298 296 294 292 292 293 295 296 297 297 297 297 297 298 299 301 303 305
234 238 242 246 249 253 260 266 271 276 281 285 288 291 296 300 303 303 302 301 301 301 302 301 299 296 294 294 294 294 295 296 296 295 295 295 295 296 298 299 301 302
238 241 245 249 254 259 265 270 275 281 284 287 289 291 295 300 302 302 301 301 301 301 301 300 298 296 295 294 294 294 295 294 294 294 293 293 293 294 296 297 298 300
238 241 245 250 257 263 268 275 281 284 286 288 289 291 295 298 300 300 300 300 300 300 300 298 297 295 295 294 294 293 293 293 293 292 292 292 292 293 294 295 296 298
234 238 243 250 258 264 271 276 281 284 286 287 288 291 293 296 298 299 298 298 299 299 299 297 295 295 294 294 294 294 293 293 292 291 291 291 291 292 292 293 294 296
234 239 247 255 261 266 270 275 279 283 285 286 287 290 292 295 296 297 296 297 298 298 298 296 295 294 294 294 294 294 293 293 292 291 291 291 291 290 291 291 293 295
236 243 251 258 263 265 269 274 280 282 283 284 287 289 291 294 294 295 296 297 298 297 296 295 294 293 293 293 293 293 293 292 291 291 291 291 291 290 291 291 293 295
238 247 255 259 261 264 268 274 279 280 281 283 285 288 291 292 293 294 296 297 297 296 295 294 294 293 293 293 293 293 293 292 291 291 290 290 290 290 291 292 293 295
245 253 257 258 260 264 270 275 278 279 280 282 285 288 290 291 292 294 295 296 296 295 294 294 294 294 294 294 294 294 294 293 293 292 291 291 291 291 292 293 294 296
249 253 257 258 261 266 271 275 276 276 278 281 284 287 288 290 291 293 295 295 295 294 294 295 295 295 296 296 296 296 295 295 294 293 293 292 292 293 294 295 296 297
249 253 257 260 263 266 269 271 271 273 275 278 281 284 286 288 290 292 294 294 294 294 295 295 295 296 297 297 297 297 296 296 295 295 294 293 293 294 295 297 298 298
252 257 259 261 262 263 264 265 267 270 273 276 279 281 284 286 289 291 292 293 293 294 295 295 296 296 296 296 297 297 297 297 296 296 295 294 294 295 296 297 298 299
257 259 260 259 259 259 260 263 266 269 272 274 277 280 282 285 288 290 291 292 294 295 295 295 296 296 296 296 296 296 296 296 296 296 296 296 296 296 297 298 298 299
261 260 258 257 257 258 261 264 267 269 271 273 276 279 282 285 287 289 292 294 295 295 295 296 296 296 295 295 295 295 295 295 295 295 296 296 297 298 298 298 299 299
264 261 257 256 256 257 261 264 267 269 270 272 275 278 282 285 288 291 293 294 294 295 295 296 296 296 295 295 295 294 294 295 295 295 296 297 298 299 300 300 300 300
265 260 256 255 255 257 261 264 266 267 269 272 275 279 282 285 288 291 292 293 294 294 295 296 295 295 294 294 294 294 294 294 295 295 297 298 300 301 301 302 303 303
262 257 255 255 256 259 261 263 264 266 268 272 276 279 282 285 288 290 291 292 293 294 294 294 294 294 294 294 294 294 294 294 294 296 297 298 299 300 302 303 304 305
259 257 255 256 258 260 262 263 263 265 269 273 277 280 283 285 287 289 290 292 292 293 293 293 294 293 293 294 294 294 295 295 295 296 296 297 298 299 301 303 304 305